Погода в Ставрополе

Погода в Ставрополе : погода сейчас, прогноз погоды и архив. Всё, что Вы хотите узнать о погоде в Ставрополе!

Поиск расширенной информации на нашем сайте:

Другие новости

Новости СМИ2

Главная страница сайта

Новости сайта

02.10.2013

Напоминаем, что на нашем новом сайте вы можете получить высокодетализированные прогнозы погоды по пунктам России, СНГ и мира (включающие важные для авиации метеовеличины, такие как направление и скорость ветра, видимость, явления погоды, количество и форма облачности, нижняя и верхняя граница облачности), а также ознакомиться с разнообразными материалами по авиационной метеорологии и подборкой полезных ссылок на эту тему.

Сайт Метеоцентр.Азия посвящён разработке технологий оптимизации авиаметеорологического обслуживания, включая проектирование и перспективное создание нескольких автоматизированных авиаметеорологических систем:
- система выпуска высокодетальных прогностических карт явлений погоды для нижнего воздушного пространства по России и ближнему зарубежью;
- система верификации прогнозов TAF (выпускаемых синоптиками официальных АМСГ РФ и ближнего зарубежья) и AUTOTAF (выпускаемых сайтом Метеоцентр.Азия) - выявление ошибок, онлайн-сопоставление с фактической погодой METAR, автоматическое внесение коррективов в прогнозы при резком отклонении фактической погоды от прогноза, подсчёт оправдываемости прогнозов по элементам и в целом;
- система обработки, анализа и отображения авиаметеорологической информации для применения провайдерами метеорологической информации.


Погода в Ставрополе - сегодня

Время (UTC), дата Ветер
(°,м/с) 
Видим.   Явления Облачность Т
(°С)
Тd
(°С)
f(%) Тe
(°С)
Pmin
(гПа)
dP
(гПа)
Po
(мм)
O2
(г/м3)
Тmin Tmax R s Состояние
почвы
09 25.06.17 260 (З) 5{10}  10 км  слаб. ливневой дождь  10/6 300 м кучево-дожд., средняя 
[Cb cap|Ac und]
+18.3 +16.7 90 +31  1013.9  1.1  722  269           
12 25.06.17 340 (С) 20000 м  {ливн. осадки}  9/3 600 м кучево-дожд., средняя 
[Cb calv|Ac trans]
+21.3 +14 63 +29  1014.1  0.7  722  267           
15 25.06.17 320 (СЗ) 20000 м    4/4 1000 м 
[Cu hum]
+22.1 +11.2 50 +26  1015.2  1.1  723  267    +22.8     
18 25.06.17 тихо ()   20000 м    1/0 средняя 
[Ac trans]
+17.1 +12.1 72 +22  1017.4  1.2  724  272           
21 25.06.17 210 (ЮЗ) 20000 м    ясно 
+15.7 +11.2 75 +20  1018.4  0.7  725  274           
00 26.06.17 220 (ЮЗ) 20000 м    ясно 
+14.7 +10.7 77 +18  1018.3  -0.3  724  275           
03 26.06.17 190 (Ю) 20000 м    ясно 
+18.1 +13 72 +25  1017.2  -0.5  724  271  +13.4        сухая 
06 26.06.17 120 (ЮВ) 20000 м    ясно 
+22.5 +12.8 54 +28  1016.4  724  267           
09 26.06.17 090 (В) 20000 м    4/4 600 м 
[Cu hum]
+24.5 +12.5 47 +30  1016  0.1  724  265           
12 26.06.17 110 (В) 20000 м    5/5 1000 м 
[Cu hum]
+26 +12.8 44 +32  1014.7  -0.9  723  264           
15 26.06.17 100 (В) 20000 м    3/3 1000 м 
[Cu hum]
+25.1 +12.8 46 +31  1014  -0.9  722  264    +26.2       
18 26.06.17 090 (В) 20000 м    ясно 
+19.2 +14.1 72 +28  1014.5  -0.4  722  269           
21 26.06.17 120 (ЮВ) 20000 м    ясно 
+17.4 +12.7 74 +24  1014.2  -0.6  722  271           
00 27.06.17 120 (ЮВ) 20000 м    ясно 
+15.7 +11.7 77 +20  1014.2  -0.4  721  273           
03 27.06.17 120 (ЮВ) 20000 м    ясно 
+16.1 +12.6 80 +22  1014.2  0.1  722  272  +13.6        сухая 
06 27.06.17 120 (ЮВ) 20000 м    5/0 верхняя 
[Ci fib]
+20.9 +14.8 68 +30  1012.5  -0.8  721  267           
09 27.06.17 120 (ЮВ) 20000 м    4/0 верхняя 
[Ci fib]
+26 +13.7 47 +34  1010.9  -0.6  720  262           
12 27.06.17 090 (В) 20000 м    5/0 верхняя 
[Ci fib]
+27.3 +15.5 49 +38  1009.6  -1  720  260           
15 27.06.17 120 (ЮВ) 20000 м    4/0 средняя, верхняя 
[Ac trans|Ci fib]
+27 +16.9 54 +40  1009.7  0.1  720  260    +27.6       
18 27.06.17 160 (Ю) 20000 м    8/5 1000 м кучево-дожд., средняя, верхняя 
[Cb calv|Ac trans|Ci fib]
+23.8 +17.6 68 +39  1011.2  0.9  720  263           
21 27.06.17 210 (ЮЗ) 20000 м  {ливн. осадки}  3/0 верхняя 
[Ci fib]
+19.5 +16.8 84 +34  1010.7  -1.2  720  267           
00 28.06.17 320 (СЗ) 20000 м  {ливн. осадки}  3/0 средняя 
[Ac trans]
+19.4 +15.9 80 +32  1010.6  -0.2  719  267           
03 28.06.17 310 (СЗ) 20000 м    3/0 средняя 
[Ac trans]
+22.1 +17.1 73 +36  1010.5  0.4  720  264  +17.3        влажная 
06 28.06.17 120 (ЮВ) 20000 м    5/0 средняя 
[Ac trans]
+26.8 +18.4 60 +43  1010.1  0.4  720  260           
09 28.06.17 010 (С) 20000 м    5/5 600 м 
[Cu med, cong]
+28.8 +16.8 48 +42  1009.9  0.1  720  259           
Время (UTC), дата Ветер
(°,м/с) 
Видим.   Явления Облачность Т
(°С)
Тd
(°С)
f(%) Тe
(°С)
Pmin
(гПа)
dP
(гПа)
Po
(мм)
O2
(г/м3)
Тmin Tmax R s Состояние
почвы

Для получения пояснительной информации подведите курсор к названию столбца.

ПОГОДА в Ставрополе - архив

Всё, что Вы хотите узнать о погоде в Ставрополе - удобно и подробно!

Выберите нужную дату (начиная с 1 января 2015* года) и нажмите кнопку "Найти".
Будут отображены архивные сводки погоды по пункту Ставрополь, начиная с указанной даты.


Отображать данные в формате CSV (для использования в таблицах Excel)


Внимание! Наш архив погоды предназначен исключительно для личного некоммерческого использования в познавательных целях. Если Вам необходимы официальные справки о состоянии погоды (для производственных, юридических, коммерческих и т.п. целей), обращайтесь в органы Росгидромета.

*Примечание: данная дата относится к архиву по метеостанциям СССР (Россия, СНГ, Балтия).
Архив по метеостанциям Зарубежной Европы и Азии (кроме Китая) хранится 10 дней, по другим регионам земного шара (Китай, Африка, Америка, Австралия, Океания) - 1 день.

Ставрополь - район местоположения метеостанции


Название, широта, долгота, высота метеостанции:
Ставрополь 45.1°ш. 42.1°д. 452 м над ур. моря [Российская Федерация]

Дополнительная информация

В oтличие oт бoльшинства пoгoдных сайтoв мы публикуем пoдрoбную метеoинфoрмацию в детальнoм прoфессиoнальнoм фoрмате.

Характеристики температуры и влажнoсти вoздуха измеряются на высoте 2 м в тени вдали oт зданий и деревьев.
Скoрoсть ветра измеряется на высoте 10 м (на урoвне рoста челoвека скoрoсть ветра ниже в 1.5-2 раза). Если метеoстанция нахoдится в гoрoде или в лесу, тo скoрoсть ветра занижена на 2-4 м/с пo сравнению с oткрытым местoм. Скoрoсть ветра над акватoриями крупных рек и oзёр, а также на вершинах хoлмoв на 2-5 м/с выше, чем в oбычных услoвиях.
Атмoсфернoе давление в разных тoчках местнoсти мoжет значительнo oтличаться oт давления на метеoстанции, в зависимoсти oт услoвий рельефа (при пoдъёме на 10 м давление пoнижается примернo на 1 мм рт.ст.).